Marysville, OH

10:26 AM EDT on August 20, 2017 (GMT -0400)
Marysville

Weather History for KMRT - October, 2012

Change the Weather History Date:

Thursday, October 18, 2012

  Actual Average (KDLZ) Record (KDLZ)
Temperature  
Mean Temperature 55 °F -  
Max Temperature 62 °F 62 °F 86 °F (1938)
Min Temperature 48 °F 38 °F 23 °F (1976)
Degree Days  
Heating Degree Days 10    
Growing Degree Days 5 (Base 50)    
Moisture  
Dew Point 37 °F    
Average Humidity 50    
Maximum Humidity 90    
Minimum Humidity 27    
Precipitation  
Precipitation 0.04 in - - ()
Sea Level Pressure  
Sea Level Pressure 29.62 in    
Wind  
Wind Speed 12 mph (SSW)    
Max Wind Speed 24 mph    
Max Gust Speed 36 mph    
Visibility 10 miles    
Events      
Averages and records for this station are not official NWS values.
T = Trace of Precipitation, MM = Missing Value Source: NWS Daily Summary

Daily Weather History Graph

Daily Weather History Graph

Search for Another Location

Airport or City:

Trip Planner

Search our weather history database for the weather conditions in past years. The results will help you decide how hot, cold, wet, or windy it might be!

Date:

Astronomy

Oct. 18, 2012 Rise Set
Actual Time 7:47 AM EDT 6:48 PM EDT
Civil Twilight 7:20 AM EDT 7:15 PM EDT
Nautical Twilight 6:48 AM EDT 7:47 PM EDT
Astronomical Twilight 6:17 AM EDT 8:18 PM EDT
Moon 11:28 AM EDT (10/18) 9:21 PM EDT (10/18)
Length of Visible Light 11h 55m
Length of Day
11h 00m
Waxing Crescent, 14% of the Moon is Illuminated
Oct 18
Waxing Crescent
Oct 21
First Quarter
Oct 29
Full
Nov 6
Last Quarter
Nov 13
New

Hourly Weather History & Observations

Time (EDT) Temp. Dew Point Humidity Pressure Visibility Wind Dir Wind Speed Gust Speed Precip Events Conditions
12:14 AM 61.5 °F 45.9 °F 56% 29.62 in 10.0 mi South 9.2 mph - N/A   Clear
12:35 AM 61.7 °F 45.1 °F 55% 29.62 in 10.0 mi South 8.1 mph - N/A   Mostly Cloudy
12:54 AM 62.6 °F 44.6 °F 52% 29.61 in 10.0 mi South 11.5 mph 18.4 mph N/A   Overcast
1:14 AM 62.1 °F 43.9 °F 51% 29.60 in 10.0 mi South 10.4 mph 17.3 mph N/A   Overcast
1:34 AM 61.9 °F 43.3 °F 51% 29.60 in 10.0 mi South 11.5 mph 16.1 mph N/A   Overcast
1:54 AM 61.7 °F 42.6 °F 50% 29.58 in 10.0 mi South 9.2 mph 17.3 mph N/A   Scattered Clouds
2:14 AM 61.5 °F 42.1 °F 49% 29.57 in 10.0 mi South 11.5 mph 20.7 mph N/A   Clear
2:34 AM 61.2 °F 41.9 °F 49% 29.58 in 10.0 mi South 10.4 mph 18.4 mph N/A   Clear
2:54 AM 61.3 °F 41.2 °F 48% 29.58 in 10.0 mi South 11.5 mph 18.4 mph N/A   Clear
3:15 AM 61.2 °F 40.8 °F 47% 29.57 in 10.0 mi South 12.7 mph 17.3 mph N/A   Clear
3:34 AM 60.4 °F 40.8 °F 48% 29.55 in 10.0 mi South 9.2 mph - N/A   Clear
3:54 AM 59.9 °F 40.8 °F 49% 29.56 in 10.0 mi South 12.7 mph 20.7 mph N/A   Clear
4:15 AM 59.9 °F 41.2 °F 50% 29.55 in 10.0 mi South 13.8 mph 20.7 mph N/A   Mostly Cloudy
4:34 AM 59.5 °F 41.4 °F 51% 29.54 in 10.0 mi South 12.7 mph 19.6 mph N/A   Overcast
4:54 AM 59.4 °F 41.4 °F 51% 29.53 in 10.0 mi South 13.8 mph 24.2 mph N/A   Mostly Cloudy
5:15 AM 59.2 °F 41.5 °F 52% 29.52 in 10.0 mi South 16.1 mph 23.0 mph N/A   Mostly Cloudy
5:34 AM 59.4 °F 41.7 °F 52% 29.52 in 10.0 mi South 16.1 mph 25.3 mph N/A   Scattered Clouds
5:55 AM 59.2 °F 41.7 °F 52% 29.51 in 10.0 mi South 17.3 mph 26.5 mph N/A   Scattered Clouds
6:14 AM 58.6 °F 41.9 °F 54% 29.51 in 10.0 mi South 19.6 mph 26.5 mph N/A   Mostly Cloudy
6:34 AM 58.6 °F 41.9 °F 54% 29.52 in 10.0 mi South 20.7 mph 28.8 mph N/A   Scattered Clouds
6:54 AM 58.1 °F 42.6 °F 56% 29.51 in 10.0 mi South 19.6 mph 26.5 mph N/A   Scattered Clouds
7:34 AM 57.2 °F 44.1 °F 62% 29.52 in 10.0 mi SSW 11.5 mph - N/A   Overcast
7:54 AM 57.4 °F 44.6 °F 62% 29.52 in 10.0 mi South 12.7 mph - N/A   Overcast
8:14 AM 57.2 °F 45.0 °F 64% 29.52 in 10.0 mi SSW 13.8 mph 20.7 mph N/A   Overcast
8:35 AM 58.5 °F 45.0 °F 61% 29.53 in 10.0 mi SSW 21.9 mph 27.6 mph N/A   Overcast
8:54 AM 58.3 °F 45.7 °F 63% 29.53 in 10.0 mi SSW 24.2 mph 32.2 mph N/A   Overcast
9:14 AM 55.9 °F 48.4 °F 76% 29.54 in 4.0 mi SSW 20.7 mph 27.6 mph N/A   Overcast
9:35 AM 50.7 °F 46.9 °F 87% 29.59 in - West 17.3 mph - 0.02 in   Unknown
9:54 AM 50.2 °F 47.3 °F 90% 29.58 in - West 9.2 mph - 0.02 in   Overcast
10:14 AM 51.8 °F 47.1 °F 84% 29.60 in 10.0 mi West 13.8 mph 19.6 mph N/A   Overcast
10:35 AM 51.1 °F 45.9 °F 82% 29.61 in 10.0 mi WSW 15.0 mph 21.9 mph 0.01 in   Mostly Cloudy
10:54 AM 52.7 °F 45.7 °F 77% 29.62 in 10.0 mi WSW 16.1 mph 21.9 mph 0.01 in   Mostly Cloudy
11:14 AM 54.7 °F 44.6 °F 69% 29.62 in 10.0 mi WSW 15.0 mph 25.3 mph N/A   Mostly Cloudy
11:35 AM 55.4 °F 42.6 °F 62% 29.62 in 10.0 mi WSW 17.3 mph 23.0 mph 0.01 in   Scattered Clouds
11:54 AM 55.0 °F 43.0 °F 64% 29.63 in 10.0 mi West 15.0 mph 26.5 mph 0.01 in   Scattered Clouds
12:14 PM 54.7 °F 41.2 °F 60% 29.64 in 10.0 mi WSW 17.3 mph 28.8 mph N/A   Scattered Clouds
12:34 PM 55.9 °F 37.6 °F 50% 29.66 in 10.0 mi WSW 19.6 mph 35.7 mph N/A   Scattered Clouds
12:54 PM 57.2 °F 40.1 °F 53% 29.65 in 10.0 mi West 19.6 mph 24.2 mph N/A   Clear
1:14 PM 57.7 °F 39.9 °F 51% 29.65 in 10.0 mi West 17.3 mph 27.6 mph N/A   Clear
1:34 PM 59.0 °F 37.2 °F 44% 29.65 in 10.0 mi West 18.4 mph 28.8 mph N/A   Clear
1:54 PM 59.5 °F 36.3 °F 42% 29.65 in 10.0 mi West 17.3 mph 25.3 mph N/A   Clear
2:14 PM 59.5 °F 32.9 °F 37% 29.64 in 10.0 mi West 15.0 mph 26.5 mph N/A   Clear
2:34 PM 60.1 °F 32.7 °F 36% 29.66 in 10.0 mi WSW 13.8 mph 20.7 mph N/A   Clear
2:54 PM 60.8 °F 31.1 °F 33% 29.65 in 10.0 mi WSW 13.8 mph 25.3 mph N/A   Scattered Clouds
3:14 PM 61.0 °F 29.5 °F 30% 29.66 in 10.0 mi WSW 15.0 mph 25.3 mph N/A   Scattered Clouds
3:34 PM 61.5 °F 29.7 °F 30% 29.66 in 10.0 mi SW 15.0 mph 26.5 mph N/A   Scattered Clouds
3:54 PM 61.7 °F 27.5 °F 27% 29.65 in 10.0 mi WSW 11.5 mph 26.5 mph N/A   Clear
4:14 PM 61.9 °F 28.4 °F 28% 29.65 in 10.0 mi WSW 13.8 mph - N/A   Clear
4:34 PM 61.2 °F 27.1 °F 27% 29.65 in 10.0 mi WSW 11.5 mph 26.5 mph N/A   Clear
4:54 PM 61.5 °F 27.7 °F 28% 29.65 in 10.0 mi WSW 13.8 mph 28.8 mph N/A   Clear
5:04 PM 61.7 °F 28.6 °F 29% 29.65 in 10.0 mi WSW 15.0 mph 20.7 mph N/A   Scattered Clouds
5:25 PM 60.8 °F 28.4 °F 29% 29.66 in 10.0 mi SW 11.5 mph 20.7 mph N/A   Scattered Clouds
5:45 PM 60.8 °F 28.4 °F 29% 29.67 in 10.0 mi SW 13.8 mph 19.6 mph N/A   Scattered Clouds
6:05 PM 59.0 °F 28.4 °F 31% 29.67 in 10.0 mi SW 9.2 mph 19.6 mph N/A   Scattered Clouds
6:25 PM 57.2 °F 28.4 °F 33% 29.68 in 10.0 mi SW 9.2 mph - N/A   Scattered Clouds
6:45 PM 55.4 °F 30.2 °F 38% 29.68 in 10.0 mi SW 8.1 mph - N/A   Scattered Clouds
7:05 PM 53.6 °F 30.2 °F 41% 29.69 in 10.0 mi SSW 6.9 mph - N/A   Scattered Clouds
7:25 PM 53.6 °F 30.2 °F 41% 29.70 in 10.0 mi SW 9.2 mph - N/A   Scattered Clouds
7:45 PM 53.6 °F 30.2 °F 41% 29.70 in 10.0 mi SW 8.1 mph - N/A   Clear
8:05 PM 51.8 °F 30.2 °F 44% 29.71 in 10.0 mi SW 8.1 mph - N/A   Clear
8:25 PM 50.0 °F 32.0 °F 50% 29.71 in 10.0 mi SW 6.9 mph - N/A   Clear
8:45 PM 48.2 °F 32.0 °F 54% 29.72 in 10.0 mi South 4.6 mph - N/A   Clear
9:05 PM 48.2 °F 32.0 °F 54% 29.72 in 10.0 mi South 6.9 mph - N/A   Clear
9:25 PM 48.2 °F 30.2 °F 50% 29.72 in 10.0 mi South 5.8 mph - N/A   Clear
9:45 PM 48.2 °F 30.2 °F 50% 29.72 in 10.0 mi SSE 3.5 mph - N/A   Clear
10:05 PM 48.2 °F 30.2 °F 50% 29.72 in 10.0 mi SSE 3.5 mph - N/A   Clear
10:25 PM 50.0 °F 30.2 °F 47% 29.72 in 10.0 mi SSE 6.9 mph - N/A   Clear
10:45 PM 50.0 °F 30.2 °F 47% 29.72 in 10.0 mi SSE 8.1 mph - N/A   Clear
11:05 PM 50.0 °F 30.2 °F 47% 29.71 in 10.0 mi South 8.1 mph - N/A   Clear
11:45 PM 48.2 °F 30.2 °F 50% 29.70 in 10.0 mi South 5.8 mph - N/A   Scattered Clouds